Regional Weather Roundup
Issued by NWS Albany, NY

Home | Current Version | Previous Version | Text Only | Print | Product List | Glossary On
Versions: 1 2 3 4 5 6 7 8 9 10 11 12 13 14 15 16 17 18 19 20 21 22 23 24 25 26 27 28 29
000
ASUS41 KALY 242310
RWRALY

NEW YORK STATE HOURLY WEATHER ROUNDUP
NATIONAL WEATHER SERVICE ALBANY NY
700 PM EDT FRI OCT 24 2014

NOTE: "FAIR" INDICATES FEW OR NO CLOUDS BELOW 12,000 FEET WITH NO
SIGNIFICANT WEATHER AND/OR NO OBSTRUCTIONS TO VISIBILITY.

NYZ032-033-038>043-046>054-057>066-NYZ062>081-250000-
EAST


CITY           SKY/WX    TMP DP  RH WIND       PRES   REMARKS
ALBANY         CLOUDY    47  44  90 NE8       29.84R
GLENS FALLS    CLOUDY    46  43  89 CALM      29.85R
POUGHKEEPSIE   PTCLDY    54  46  74 CALM      29.80R
NEWBURGH       MOCLDY    54  48  82 CALM      29.81R
MONTGOMERY     PTCLDY    54  44  69 MISG      29.79R
WHITE PLAINS   PTCLDY    52  44  74 NW5       29.78R
ISLIP          MOCLDY    55  45  68 NW5       29.77R
NEW YORK CITY  MOCLDY    58  47  66 E6        29.79R
CENTRAL PARK   PTCLDY    57  45  64 CALM      29.82R
$$

NYZ005>009-017-018-044>046-055-056-250000-
CENTRAL


CITY           SKY/WX    TMP DP  RH WIND       PRES   REMARKS
FULTON         PTCLDY    49  38  65 W8        29.90S
SYRACUSE       PTCLDY    51  33  50 W3        29.91R
ROME           CLEAR     50  41  71 NW8       29.90R
ELMIRA         PTCLDY    49  34  56 CALM      29.91R
BINGHAMTON     PTCLDY    51  39  63 NW8       29.89S
MONTICELLO     CLEAR     54  37  54 NW12G18   29.84R
$$

NYZ026>034-041>043-250000-
NORTH


CITY           SKY/WX    TMP DP  RH WIND       PRES   REMARKS
WATERTOWN      CLEAR     51  44  77 SW6       29.88S
FORT DRUM      NOT AVBL
MASSENA        MOCLDY    50  43  77 S5        29.85S
SARANAC LAKE   CLOUDY    42  41  96 CALM      29.84S
PLATTSBURGH    CLOUDY    49  41  74 W5        29.84S
$$

NYZ001>004-010>016-019>021-250000-
WEST


CITY           SKY/WX    TMP DP  RH WIND       PRES   REMARKS
NIAGARA FALLS  PTCLDY    49  40  71 SW9       29.95S
BUFFALO        PTCLDY    51  43  74 W9        29.95S
DUNKIRK        CLEAR     51  44  77 SW7       29.98S
JAMESTOWN      CLEAR     48  37  66 W6        29.98S
WELLSVILLE     PTCLDY    49  24  37 NW10      29.96R
ROCHESTER      MOCLDY    51  38  60 W9        29.94R
PENN YAN       MOCLDY    53  32  44 W7        29.92R
$$

             KEY
       WCI = WIND CHILL INDEX
       VSB = VISIBILITY
       HX  = HEAT INDEX
$$



USA.gov is the U.S. government's official web portal to all federal, state and local government web resources and services.